Messwerte Bandar Lengeh

Temperatur

Temperatur
°C
1594265400 8.00 8.00 35
1594269000 9.00 9.00 37
1594272600 10.00 10.00 37
1594276200 11.00 11.00 37
1594279800 12.00 12.00 37
1594283400 13.00 13.00 38
1594287000 14.00 14.00 39
1594290600 15.00 15.00 38
1594294200 16.00 16.00 37
1594297800 17.00 17.00 37
1594301400 18.00 18.00 38
1594305000 19.00 19.00 38
1594308600 20.00 20.00 37
1594312200 21.00 21.00 37
1594315800 22.00 22.00 36
1594319400 23.00 23.00 36
1594323000 0.00 0.00
1594326600 1.00 1.00
1594330200 2.00 2.00 34
1594333800 3.00 3.00
1594337400 4.00 4.00
1594341000 5.00 5.00 32
1594344600 6.00 6.00
1594348200 7.00 7.00 32

Aktuellste Messwerte

Wettercharakter
Wetter: recht sonnig
Temperatur
34 °C
Feuchtigkeit
60 %
Wind
0 km/h, -
Luftdruck
995 hPa
Messzeit: 10. Juli 2020, 7.30Datenquelle: METAR

Weitere Messstationen in der Nähe

Messstation Temperatur Entfernung
Abu Musa 33 °C 80 km
Kish Island / Kish 33 °C 85 km
Ras Al Khaimah 32 °C 153 km
Schardscha 33 °C 155 km
Dubai 35 °C 156 km
Bandar Abbas 34 °C 168 km
Fujairah 35 °C 223 km

Wind

Windrichtung Böen Mittelwind
° km/h km/h
1594265400 8.00 7.00 - 8.00 90° 10
1594269000 9.00 8.00 - 9.00 90° 20
1594272600 10.00 9.00 - 10.00 120° 20
1594276200 11.00 10.00 - 11.00 120° 20
1594279800 12.00 11.00 - 12.00 120° 15
1594283400 13.00 12.00 - 13.00 120° 10
1594287000 14.00 13.00 - 14.00 160° 15
1594290600 15.00 14.00 - 15.00 180° 10
1594294200 16.00 15.00 - 16.00 220° 15
1594297800 17.00 16.00 - 17.00 220° 15
1594301400 18.00 17.00 - 18.00 240° 20
1594305000 19.00 18.00 - 19.00 260° 15
1594308600 20.00 19.00 - 20.00 270° 15
1594312200 21.00 20.00 - 21.00 270° 10
1594315800 22.00 21.00 - 22.00 0
1594319400 23.00 22.00 - 23.00 0
1594323000 0.00 23.00 - 0.00
1594326600 1.00 0.00 - 1.00
1594330200 2.00 1.00 - 2.00 0
1594333800 3.00 2.00 - 3.00
1594337400 4.00 3.00 - 4.00
1594341000 5.00 4.00 - 5.00 0
1594344600 6.00 5.00 - 6.00
1594348200 7.00 6.00 - 7.00 0

Ihre Wetterstation

Fehlt Ihre Wetterstation auf unserem Portal?

Schreiben Sie an network@meteonews.ch

Klima

Wann ist es am wärmsten? Wann regnet es am wenigsten? Unsere Klimadaten geben Auskunft.